,,PA_Meas_PMT16A,,PR_Meas_QMR101_102,,RH_Meas_QMH101,,SR_Meas_QMS101,,TA_Meas_QMH101,,GenWind,,GenWind,
time,status,PA,status,PR,status,RH,status,SR,status,TA,status,DirAvg,status,SpdAvg,
Wed Feb 29 00:00:04 2012,VALID,914.384,VALID,0,VALID,97.8008,VALID,21.4882,VALID,18.4174,VALID,144,VALID,0.435547,
Wed Feb 29 00:01:04 2012,VALID,914.404,VALID,0,VALID,97.8084,VALID,22.885,VALID,18.3965,VALID,144,VALID,0.390234,
Wed Feb 29 00:02:04 2012,VALID,914.437,VALID,0,VALID,97.7932,VALID,24.3891,VALID,18.416,VALID,144,VALID,0.400391,
Wed Feb 29 00:03:04 2012,VALID,914.427,VALID,0,VALID,97.8084,VALID,26.0008,VALID,18.416,VALID,144,VALID,0.00195313,
Wed Feb 29 00:04:04 2012,VALID,914.45,VALID,0,VALID,97.8237,VALID,27.5049,VALID,18.416,VALID,144,VALID,0.555078,
Wed Feb 29 00:05:04 2012,VALID,914.425,VALID,0,VALID,97.8084,VALID,29.0091,VALID,18.3979,VALID,144,VALID,0.436328,
Wed Feb 29 00:06:04 2012,VALID,914.415,VALID,0,VALID,97.8008,VALID,30.6207,VALID,18.3965,VALID,144,VALID,0.508984,
Wed Feb 29 00:07:04 2012,VALID,914.418,VALID,0,VALID,97.7932,VALID,32.4472,VALID,18.377,VALID,144,VALID,0.604688,
Wed Feb 29 00:08:04 2012,VALID,914.43,VALID,0,VALID,97.7932,VALID,34.3812,VALID,18.3979,VALID,144,VALID,0.584375,
Wed Feb 29 00:09:04 2012,VALID,914.444,VALID,0,VALID,97.7856,VALID,36.4226,VALID,18.3575,VALID,144,VALID,0.626953,
Wed Feb 29 00:10:04 2012,VALID,914.487,VALID,0,VALID,97.8008,VALID,38.4639,VALID,18.3784,VALID,144,VALID,0.866406,
Wed Feb 29 00:11:04 2012,VALID,914.502,VALID,0,VALID,97.7779,VALID,40.7202,VALID,18.3589,VALID,272,VALID,0.935547,
Wed Feb 29 00:12:04 2012,VALID,914.541,VALID,0,VALID,97.8008,VALID,42.869,VALID,18.3199,VALID,278,VALID,0.954687,
Wed Feb 29 00:13:04 2012,VALID,914.566,VALID,0,VALID,97.8008,VALID,44.803,VALID,18.3004,VALID,278,VALID,0.735547,
Wed Feb 29 00:14:04 2012,VALID,914.616,VALID,0,VALID,97.8008,VALID,46.9518,VALID,18.2615,VALID,278,VALID,0.982422,
Wed Feb 29 00:15:04 2012,VALID,914.621,VALID,0,VALID,97.8008,VALID,48.8857,VALID,18.2809,VALID,278,VALID,0.694531,
Wed Feb 29 00:16:04 2012,VALID,914.642,VALID,0,VALID,97.8008,VALID,51.0345,VALID,18.2809,VALID,278,VALID,0.604688,
Wed Feb 29 00:17:04 2012,VALID,914.673,VALID,0,VALID,97.816,VALID,53.0759,VALID,18.2809,VALID,278,VALID,1.07773,
Wed Feb 29 00:18:04 2012,VALID,914.692,VALID,0,VALID,97.8084,VALID,55.1173,VALID,18.2809,VALID,265,VALID,0.813281,
Wed Feb 29 00:19:04 2012,VALID,914.714,VALID,0,VALID,97.8313,VALID,57.2661,VALID,18.3004,VALID,265,VALID,0.870313,
Wed Feb 29 00:20:04 2012,VALID,914.727,VALID,0,VALID,97.8465,VALID,59.3075,VALID,18.2796,VALID,265,VALID,1.00781,
Wed Feb 29 00:21:04 2012,VALID,914.732,VALID,0,VALID,97.8389,VALID,61.3489,VALID,18.3004,VALID,265,VALID,0.846484,
Wed Feb 29 00:22:04 2012,VALID,914.725,VALID,0,VALID,97.8465,VALID,63.3903,VALID,18.3199,VALID,265,VALID,0.639844,
Wed Feb 29 00:23:04 2012,VALID,914.722,VALID,0,VALID,97.8465,VALID,65.4317,VALID,18.3589,VALID,265,VALID,0.667969,
Wed Feb 29 00:24:04 2012,VALID,914.749,VALID,0,VALID,97.8542,VALID,67.2582,VALID,18.3784,VALID,265,VALID,0.654297,
Wed Feb 29 00:25:04 2012,VALID,914.733,VALID,0,VALID,97.8618,VALID,69.1921,VALID,18.4174,VALID,265,VALID,0.421484,
Wed Feb 29 00:26:04 2012,VALID,914.72,VALID,0,VALID,97.8694,VALID,70.9112,VALID,18.4369,VALID,265,VALID,0.478125,
Wed Feb 29 00:27:04 2012,VALID,914.725,VALID,0,VALID,97.877,VALID,72.6302,VALID,18.4745,VALID,265,VALID,0.164063,
Wed Feb 29 00:28:04 2012,VALID,914.707,VALID,0,VALID,97.8694,VALID,74.2418,VALID,18.5344,VALID,265,VALID,0.00351562,
Wed Feb 29 00:29:04 2012,VALID,914.705,VALID,0,VALID,97.8847,VALID,75.6386,VALID,18.5539,VALID,265,VALID,0.629297,
Wed Feb 29 00:30:04 2012,VALID,914.724,VALID,0,VALID,97.877,VALID,77.1427,VALID,18.6109,VALID,265,VALID,0.569141,
Wed Feb 29 00:31:04 2012,VALID,914.707,VALID,0,VALID,97.8847,VALID,78.5395,VALID,18.6304,VALID,265,VALID,0.678125,
Wed Feb 29 00:32:04 2012,VALID,914.69,VALID,0,VALID,97.8923,VALID,79.9362,VALID,18.6513,VALID,178,VALID,1.1293,
Wed Feb 29 00:33:04 2012,VALID,914.731,VALID,0,VALID,97.8618,VALID,81.4404,VALID,18.6708,VALID,178,VALID,1.38711,
Wed Feb 29 00:34:04 2012,VALID,914.689,VALID,0,VALID,97.8542,VALID,82.9446,VALID,18.6903,VALID,178,VALID,1.18984,
Wed Feb 29 00:35:04 2012,VALID,914.695,VALID,0,VALID,97.8542,VALID,84.6636,VALID,18.6889,VALID,178,VALID,0.687109,
Wed Feb 29 00:36:04 2012,VALID,914.718,VALID,0,VALID,97.8542,VALID,86.705,VALID,18.7084,VALID,150,VALID,0.677734,
Wed Feb 29 00:37:04 2012,VALID,914.717,VALID,0,VALID,97.8389,VALID,88.7464,VALID,18.7488,VALID,150,VALID,0.607813,
Wed Feb 29 00:38:04 2012,VALID,914.702,VALID,0,VALID,97.8237,VALID,91.1101,VALID,18.7488,VALID,150,VALID,0.970703,
Wed Feb 29 00:39:04 2012,VALID,914.7,VALID,0,VALID,97.8008,VALID,93.4738,VALID,18.7669,VALID,150,VALID,0.701563,
Wed Feb 29 00:40:04 2012,VALID,914.684,VALID,0,VALID,97.816,VALID,95.6226,VALID,18.8268,VALID,150,VALID,0.666406,
Wed Feb 29 00:41:04 2012,VALID,914.693,VALID,0,VALID,97.8237,VALID,97.5566,VALID,18.8658,VALID,150,VALID,0.705469,
Wed Feb 29 00:42:04 2012,VALID,914.672,VALID,0,VALID,97.8008,VALID,99.3831,VALID,18.8853,VALID,150,VALID,0.903125,
Wed Feb 29 00:43:04 2012,VALID,914.695,VALID,0,VALID,97.7932,VALID,101.424,VALID,18.8839,VALID,150,VALID,0.805859,
Wed Feb 29 00:44:04 2012,VALID,914.683,VALID,0,VALID,97.7932,VALID,103.466,VALID,18.9424,VALID,55,VALID,1.02148,
Wed Feb 29 00:45:04 2012,VALID,914.688,VALID,0,VALID,97.7932,VALID,105.937,VALID,18.9633,VALID,54,VALID,0.937891,
Wed Feb 29 00:46:04 2012,VALID,914.696,VALID,0,VALID,97.8008,VALID,108.838,VALID,18.9424,VALID,54,VALID,0.927344,
Wed Feb 29 00:47:04 2012,VALID,914.704,VALID,0,VALID,97.7627,VALID,112.169,VALID,18.9438,VALID,59,VALID,0.983984,
Wed Feb 29 00:48:04 2012,VALID,914.707,VALID,0,VALID,97.7398,VALID,116.466,VALID,18.9424,VALID,59,VALID,1.01602,
Wed Feb 29 00:49:04 2012,VALID,914.722,VALID,0,VALID,97.7474,VALID,120.871,VALID,18.9424,VALID,59,VALID,0.807031,
Wed Feb 29 00:50:04 2012,VALID,914.756,VALID,0,VALID,97.7322,VALID,125.384,VALID,18.9633,VALID,59,VALID,0.522266,
Wed Feb 29 00:51:04 2012,VALID,914.762,VALID,0,VALID,97.7322,VALID,129.896,VALID,19.0218,VALID,59,VALID,0.340234,
Wed Feb 29 00:52:04 2012,VALID,914.756,VALID,0,VALID,97.7474,VALID,134.624,VALID,18.9828,VALID,59,VALID,0.399219,
Wed Feb 29 00:53:04 2012,VALID,914.778,VALID,0,VALID,97.7322,VALID,135.591,VALID,19.0218,VALID,59,VALID,0.723047,
Wed Feb 29 00:54:04 2012,VALID,914.808,VALID,0,VALID,97.7169,VALID,146.765,VALID,19.0608,VALID,165,VALID,1.03477,
Wed Feb 29 00:55:04 2012,VALID,914.821,VALID,0,VALID,97.7246,VALID,154.071,VALID,19.0203,VALID,130,VALID,0.737891,
Wed Feb 29 00:56:04 2012,VALID,914.812,VALID,0,VALID,97.7017,VALID,164.6,VALID,19.0788,VALID,142,VALID,0.663672,
Wed Feb 29 00:57:04 2012,VALID,914.823,VALID,0,VALID,97.6941,VALID,170.294,VALID,19.0788,VALID,168,VALID,0.610156,
Wed Feb 29 00:58:04 2012,VALID,914.836,VALID,0,VALID,97.7017,VALID,171.476,VALID,19.0788,VALID,169,VALID,0.744531,
Wed Feb 29 00:59:04 2012,VALID,914.871,VALID,0,VALID,97.6865,VALID,178.567,VALID,19.1178,VALID,169,VALID,0.384766,
Wed Feb 29 01:00:04 2012,VALID,914.856,VALID,0,VALID,97.7093,VALID,188.022,VALID,19.1178,VALID,169,VALID,0.469922,
Wed Feb 29 01:01:04 2012,VALID,914.805,VALID,0,VALID,97.6788,VALID,184.691,VALID,19.1763,VALID,169,VALID,0.428125,
Wed Feb 29 01:02:04 2012,VALID,914.792,VALID,0,VALID,97.6712,VALID,189.204,VALID,19.1778,VALID,169,VALID,0.217187,
Wed Feb 29 01:03:04 2012,VALID,914.804,VALID,0,VALID,97.6788,VALID,195.758,VALID,19.2738,VALID,169,VALID,0.0253906,
Wed Feb 29 01:04:04 2012,VALID,914.778,VALID,0,VALID,97.6941,VALID,202.956,VALID,19.3713,VALID,169,VALID,0.608984,
Wed Feb 29 01:05:04 2012,VALID,914.774,VALID,0,VALID,97.6865,VALID,203.708,VALID,19.3698,VALID,169,VALID,0.583203,
Wed Feb 29 01:06:04 2012,VALID,914.779,VALID,0,VALID,97.6941,VALID,209.295,VALID,19.3713,VALID,169,VALID,0.478125,
Wed Feb 29 01:07:04 2012,VALID,914.759,VALID,0,VALID,97.6636,VALID,230.891,VALID,19.4703,VALID,169,VALID,0.235547,
Wed Feb 29 01:08:04 2012,VALID,914.773,VALID,0,VALID,97.656,VALID,255.173,VALID,19.4103,VALID,169,VALID,0.323828,
Wed Feb 29 01:09:04 2012,VALID,914.752,VALID,0,VALID,97.6407,VALID,254.206,VALID,19.4088,VALID,169,VALID,0.554688,
Wed Feb 29 01:10:04 2012,VALID,914.747,VALID,0,VALID,97.5492,VALID,270.752,VALID,19.4103,VALID,169,VALID,0.603516,
Wed Feb 29 01:11:04 2012,VALID,914.743,VALID,0,VALID,97.534,VALID,274.405,VALID,19.4688,VALID,169,VALID,0.558594,
Wed Feb 29 01:12:04 2012,VALID,914.742,VALID,0,VALID,97.4654,VALID,274.727,VALID,19.4868,VALID,169,VALID,0.551562,
Wed Feb 29 01:13:04 2012,VALID,914.724,VALID,0,VALID,97.4501,VALID,276.983,VALID,19.5663,VALID,149,VALID,0.501172,
Wed Feb 29 01:14:04 2012,VALID,914.742,VALID,0,VALID,97.4501,VALID,280.099,VALID,19.6428,VALID,149,VALID,0.284766,
Wed Feb 29 01:15:04 2012,VALID,914.747,VALID,0,VALID,97.4273,VALID,277.95,VALID,19.7013,VALID,149,VALID,0.492188,
Wed Feb 29 01:16:04 2012,VALID,914.753,VALID,0,VALID,97.2748,VALID,287.727,VALID,19.7208,VALID,41,VALID,1.12461,
Wed Feb 29 01:17:04 2012,VALID,914.739,VALID,0,VALID,96.8936,VALID,302.769,VALID,19.6818,VALID,42,VALID,0.732422,
Wed Feb 29 01:18:04 2012,VALID,914.773,VALID,0,VALID,96.8098,VALID,317.381,VALID,19.6638,VALID,42,VALID,0.787109,
Wed Feb 29 01:19:04 2012,VALID,914.773,VALID,0,VALID,97.1147,VALID,331.886,VALID,19.7403,VALID,43,VALID,0.808984,
Wed Feb 29 01:20:04 2012,VALID,914.797,VALID,0,VALID,97.0537,VALID,351.333,VALID,19.7988,VALID,67,VALID,0.823438,
Wed Feb 29 01:21:04 2012,VALID,914.806,VALID,0,VALID,97.0003,VALID,344.779,VALID,19.8573,VALID,9,VALID,1.15977,
Wed Feb 29 01:22:04 2012,VALID,914.856,VALID,0,VALID,96.9241,VALID,357.564,VALID,19.9353,VALID,4,VALID,1.24258,
Wed Feb 29 01:23:04 2012,VALID,914.855,VALID,0,VALID,96.9927,VALID,361.217,VALID,20.0718,VALID,40,VALID,1.37656,
Wed Feb 29 01:24:04 2012,VALID,914.884,VALID,0,VALID,96.8479,VALID,362.506,VALID,20.1693,VALID,6,VALID,1.28477,
Wed Feb 29 01:25:04 2012,VALID,914.909,VALID,0,VALID,96.6725,VALID,359.391,VALID,20.1873,VALID,22,VALID,0.815625,
Wed Feb 29 01:26:04 2012,VALID,914.912,VALID,0,VALID,96.36,VALID,364.118,VALID,20.2278,VALID,68,VALID,0.917969,
Wed Feb 29 01:27:04 2012,VALID,914.961,VALID,0,VALID,96.3905,VALID,377.978,VALID,20.3058,VALID,68,VALID,0.969922,
Wed Feb 29 01:28:04 2012,VALID,914.981,VALID,0,VALID,96.2151,VALID,386.788,VALID,20.3043,VALID,68,VALID,1.1207,
Wed Feb 29 01:29:04 2012,VALID,915.013,VALID,0,VALID,96.1694,VALID,395.813,VALID,20.4033,VALID,349,VALID,0.919141,
Wed Feb 29 01:30:04 2012,VALID,915.018,VALID,0,VALID,96.1236,VALID,403.871,VALID,20.4813,VALID,358,VALID,1.01758,
Wed Feb 29 01:31:04 2012,VALID,915.061,VALID,0,VALID,96.3066,VALID,417.946,VALID,20.6764,VALID,358,VALID,0.410547,
Wed Feb 29 01:32:04 2012,VALID,915.079,VALID,0,VALID,95.8873,VALID,404.731,VALID,20.6764,VALID,358,VALID,0.6125,
Wed Feb 29 01:33:04 2012,VALID,915.112,VALID,0,VALID,95.5443,VALID,409.458,VALID,20.6569,VALID,358,VALID,0.264844,
Wed Feb 29 01:34:04 2012,VALID,915.136,VALID,0,VALID,95.1479,VALID,425.574,VALID,20.5984,VALID,358,VALID,0.713281,
Wed Feb 29 01:35:04 2012,VALID,915.138,VALID,0,VALID,94.8658,VALID,426.004,VALID,20.5594,VALID,358,VALID,0.620313,
Wed Feb 29 01:36:04 2012,VALID,915.133,VALID,0,VALID,94.6523,VALID,426.326,VALID,20.5594,VALID,315,VALID,0.572266,
Wed Feb 29 01:37:04 2012,VALID,915.16,VALID,0,VALID,94.5075,VALID,423.211,VALID,20.5594,VALID,304,VALID,1.1,
Wed Feb 29 01:38:04 2012,VALID,915.14,VALID,0,VALID,93.8061,VALID,425.682,VALID,20.5009,VALID,305,VALID,0.980078,
Wed Feb 29 01:39:04 2012,VALID,915.158,VALID,0,VALID,93.7147,VALID,431.699,VALID,20.5009,VALID,264,VALID,0.649219,
Wed Feb 29 01:40:04 2012,VALID,915.152,VALID,0,VALID,93.1886,VALID,440.509,VALID,20.4603,VALID,264,VALID,0.659375,
Wed Feb 29 01:41:04 2012,VALID,915.165,VALID,0,VALID,93.2344,VALID,449.749,VALID,20.4618,VALID,264,VALID,1.09258,
Wed Feb 29 01:42:04 2012,VALID,915.175,VALID,0,VALID,93.6918,VALID,450.716,VALID,20.4618,VALID,264,VALID,0.726172,
Wed Feb 29 01:43:04 2012,VALID,915.201,VALID,0,VALID,93.7299,VALID,448.674,VALID,20.4798,VALID,264,VALID,0.408594,
Wed Feb 29 01:44:04 2012,VALID,915.204,VALID,0,VALID,93.7756,VALID,466.509,VALID,20.5188,VALID,281,VALID,0.746875,
Wed Feb 29 01:45:04 2012,VALID,915.221,VALID,0,VALID,93.4402,VALID,469.196,VALID,20.5578,VALID,297,VALID,1.15625,
Wed Feb 29 01:46:04 2012,VALID,915.237,VALID,0,VALID,94.0425,VALID,454.906,VALID,20.6748,VALID,318,VALID,0.680469,
Wed Feb 29 01:47:04 2012,VALID,915.293,VALID,0,VALID,94.8124,VALID,457.807,VALID,20.9089,VALID,32,VALID,0.419531,
Wed Feb 29 01:48:04 2012,VALID,915.324,VALID,0,VALID,94.7057,VALID,467.476,VALID,21.0438,VALID,17,VALID,0.694922,
Wed Feb 29 01:49:04 2012,VALID,915.346,VALID,0,VALID,92.8761,VALID,467.476,VALID,21.1039,VALID,16,VALID,1.2582,
Wed Feb 29 01:50:04 2012,VALID,915.374,VALID,0,VALID,92.7312,VALID,473.923,VALID,21.1819,VALID,49,VALID,0.888281,
Wed Feb 29 01:51:04 2012,VALID,915.405,VALID,0,VALID,91.2752,VALID,480.584,VALID,21.2405,VALID,311,VALID,0.919141,
Wed Feb 29 01:52:04 2012,VALID,915.447,VALID,0,VALID,91.1532,VALID,475.535,VALID,21.3006,VALID,349,VALID,0.896094,
Wed Feb 29 01:53:04 2012,VALID,915.493,VALID,0,VALID,90.5509,VALID,461.245,VALID,21.3965,VALID,350,VALID,1.0793,
Wed Feb 29 01:54:04 2012,VALID,915.5,VALID,0,VALID,91.1456,VALID,463.394,VALID,21.5152,VALID,360,VALID,0.476563,
Wed Feb 29 01:55:04 2012,VALID,915.532,VALID,0,VALID,88.1572,VALID,465.543,VALID,21.5136,VALID,291,VALID,1.21758,
Wed Feb 29 01:56:04 2012,VALID,915.519,VALID,0,VALID,89.9411,VALID,477.791,VALID,21.5331,VALID,329,VALID,0.354688,
Wed Feb 29 01:57:04 2012,VALID,915.563,VALID,0,VALID,91.3057,VALID,489.932,VALID,21.6518,VALID,329,VALID,0.303125,
Wed Feb 29 01:58:04 2012,VALID,915.566,VALID,0,VALID,90.7491,VALID,467.691,VALID,21.8062,VALID,329,VALID,0.247266,
Wed Feb 29 01:59:04 2012,VALID,915.613,VALID,0,VALID,87.7531,VALID,345.316,VALID,21.7655,VALID,329,VALID,0.824219,
Wed Feb 29 02:00:04 2012,VALID,915.638,VALID,0,VALID,89.0796,VALID,341.126,VALID,21.7477,VALID,329,VALID,0.498047,
Wed Feb 29 02:01:04 2012,VALID,915.632,VALID,0,VALID,90.124,VALID,418.161,VALID,21.7477,VALID,329,VALID,0.154687,
Wed Feb 29 02:02:04 2012,VALID,915.645,VALID,0,VALID,90.4595,VALID,487.998,VALID,21.7265,VALID,329,VALID,0.230078,
Wed Feb 29 02:03:04 2012,VALID,915.678,VALID,0,VALID,90.5052,VALID,556.76,VALID,21.8647,VALID,329,VALID,0.4375,
Wed Feb 29 02:04:04 2012,VALID,915.654,VALID,0,VALID,92.4797,VALID,564.066,VALID,22.0582,VALID,329,VALID,0.544141,
Wed Feb 29 02:05:04 2012,VALID,915.698,VALID,0,VALID,90.9397,VALID,533.445,VALID,22.2745,VALID,28,VALID,0.957422,
Wed Feb 29 02:06:04 2012,VALID,915.69,VALID,0,VALID,90.8483,VALID,566,VALID,22.4289,VALID,354,VALID,0.925,
Wed Feb 29 02:07:04 2012,VALID,915.719,VALID,0,VALID,88.9653,VALID,598.017,VALID,22.5264,VALID,19,VALID,0.963281,
Wed Feb 29 02:08:04 2012,VALID,915.712,VALID,0,VALID,89.7124,VALID,592.431,VALID,22.6843,VALID,34,VALID,1.21836,
Wed Feb 29 02:09:04 2012,VALID,915.713,VALID,0,VALID,90.2079,VALID,624.341,VALID,22.8794,VALID,39,VALID,1.28047,
Wed Feb 29 02:10:04 2012,VALID,915.686,VALID,0,VALID,86.5334,VALID,632.828,VALID,22.9965,VALID,6,VALID,0.679688,
Wed Feb 29 02:11:04 2012,VALID,915.747,VALID,0,VALID,84.1244,VALID,644.325,VALID,22.9557,VALID,335,VALID,0.929688,
Wed Feb 29 02:12:04 2012,VALID,915.764,VALID,0,VALID,83.3392,VALID,638.308,VALID,22.8777,VALID,33,VALID,0.979688,
Wed Feb 29 02:13:04 2012,VALID,915.788,VALID,0,VALID,83.3316,VALID,658.722,VALID,22.7801,VALID,305,VALID,1.15703,
Wed Feb 29 02:14:04 2012,VALID,915.788,VALID,0,VALID,86.8231,VALID,664.846,VALID,22.7411,VALID,9,VALID,0.982813,
Wed Feb 29 02:15:04 2012,VALID,915.841,VALID,0,VALID,87.837,VALID,674.838,VALID,22.8794,VALID,273,VALID,0.419922,
Wed Feb 29 02:16:04 2012,VALID,915.798,VALID,0,VALID,85.1231,VALID,679.028,VALID,22.9948,VALID,293,VALID,0.638281,
Wed Feb 29 02:17:04 2012,VALID,915.821,VALID,0,VALID,84.78,VALID,668.929,VALID,23.1119,VALID,29,VALID,1.2293,
Wed Feb 29 02:18:04 2012,VALID,915.85,VALID,0,VALID,85.1536,VALID,678.706,VALID,23.2485,VALID,14,VALID,1.08633,
Wed Feb 29 02:19:04 2012,VALID,915.848,VALID,0,VALID,84.3074,VALID,725.98,VALID,23.3248,VALID,347,VALID,0.585156,
Wed Feb 29 02:20:04 2012,VALID,915.872,VALID,0,VALID,83.4154,VALID,738.873,VALID,23.3851,VALID,7,VALID,1.17422,
Wed Feb 29 02:21:04 2012,VALID,915.878,VALID,0,VALID,79.8324,VALID,728.451,VALID,23.3833,VALID,325,VALID,1.26094,
Wed Feb 29 02:22:04 2012,VALID,915.889,VALID,0,VALID,82.6607,VALID,403.012,VALID,23.307,VALID,16,VALID,1.92461,
Wed Feb 29 02:23:04 2012,VALID,915.925,VALID,0,VALID,83.7508,VALID,751.014,VALID,23.2467,VALID,6,VALID,1.25352,
Wed Feb 29 02:24:04 2012,VALID,915.944,VALID,0,VALID,80.023,VALID,735.435,VALID,23.2662,VALID,312,VALID,1.42383,
Wed Feb 29 02:25:04 2012,VALID,915.899,VALID,0,VALID,81.7535,VALID,722.327,VALID,23.1882,VALID,356,VALID,1.57773,
Wed Feb 29 02:26:04 2012,VALID,915.924,VALID,0,VALID,83.3468,VALID,684.4,VALID,23.2467,VALID,19,VALID,0.592188,
Wed Feb 29 02:27:04 2012,VALID,915.932,VALID,0,VALID,84.6657,VALID,677.631,VALID,23.3443,VALID,38,VALID,1.48359,
Wed Feb 29 02:28:04 2012,VALID,915.951,VALID,0,VALID,82.5463,VALID,692.888,VALID,23.4614,VALID,297,VALID,0.944922,
Wed Feb 29 02:29:04 2012,VALID,915.957,VALID,0,VALID,79.7028,VALID,694.607,VALID,23.5803,VALID,19,VALID,1.13594,
Wed Feb 29 02:30:04 2012,VALID,915.96,VALID,0,VALID,81.2275,VALID,704.814,VALID,23.6584,VALID,3,VALID,1.24336,
Wed Feb 29 02:31:04 2012,VALID,915.992,VALID,0,VALID,78.6584,VALID,600.489,VALID,23.7755,VALID,15,VALID,1.28594,
Wed Feb 29 02:32:04 2012,VALID,915.981,VALID,0,VALID,80.0992,VALID,656.573,VALID,23.8536,VALID,32,VALID,1.02656,
Wed Feb 29 02:33:04 2012,VALID,915.966,VALID,0,VALID,79.1234,VALID,587.596,VALID,23.9707,VALID,34,VALID,1.53047,
Wed Feb 29 02:34:04 2012,VALID,915.997,VALID,0,VALID,77.2176,VALID,617.357,VALID,24.0097,VALID,44,VALID,1.21055,
Wed Feb 29 02:35:04 2012,VALID,916.016,VALID,0,VALID,78.0866,VALID,714.376,VALID,23.9707,VALID,15,VALID,1.30469,
Wed Feb 29 02:36:04 2012,VALID,916.02,VALID,0,VALID,76.0969,VALID,686.227,VALID,23.8517,VALID,303,VALID,1.72695,
Wed Feb 29 02:37:04 2012,VALID,916.038,VALID,0,VALID,80.0154,VALID,655.713,VALID,23.5217,VALID,316,VALID,0.704687,
Wed Feb 29 02:38:04 2012,VALID,916.062,VALID,0,VALID,79.5656,VALID,556.975,VALID,23.5022,VALID,316,VALID,1.27031,
Wed Feb 29 02:39:04 2012,VALID,916.042,VALID,0,VALID,81.1131,VALID,612.307,VALID,23.559,VALID,316,VALID,0.917578,
Wed Feb 29 02:40:04 2012,VALID,916.004,VALID,0,VALID,78.0562,VALID,636.159,VALID,23.6974,VALID,5,VALID,1.27344,
Wed Feb 29 02:41:04 2012,VALID,916.036,VALID,0,VALID,80.1907,VALID,603.39,VALID,23.7364,VALID,283,VALID,0.529297,
Wed Feb 29 02:42:04 2012,VALID,916.037,VALID,0,VALID,79.1006,VALID,644.002,VALID,23.8322,VALID,309,VALID,0.75,
Wed Feb 29 02:43:04 2012,VALID,916.043,VALID,0,VALID,80.549,VALID,635.514,VALID,24.0274,VALID,360,VALID,0.244141,
Wed Feb 29 02:44:04 2012,VALID,916.039,VALID,0,VALID,76.2875,VALID,361.539,VALID,24.1641,VALID,316,VALID,0.63125,
Wed Feb 29 02:45:04 2012,VALID,916.049,VALID,0,VALID,77.6216,VALID,282.248,VALID,24.1854,VALID,351,VALID,1.28203,
Wed Feb 29 02:46:04 2012,VALID,916.076,VALID,0,VALID,76.623,VALID,302.662,VALID,24.1073,VALID,5,VALID,1.8918,
Wed Feb 29 02:47:04 2012,VALID,916.044,VALID,0,VALID,78.018,VALID,351.118,VALID,23.7542,VALID,20,VALID,1.39453,
Wed Feb 29 02:48:04 2012,VALID,916.048,VALID,0,VALID,79.8934,VALID,273.653,VALID,23.5785,VALID,21,VALID,0.366016,
Wed Feb 29 02:49:04 2012,VALID,916.048,VALID,0,VALID,82.3405,VALID,270,VALID,23.5608,VALID,21,VALID,1.19023,
Wed Feb 29 02:50:04 2012,VALID,916.03,VALID,0,VALID,81.8755,VALID,257.214,VALID,23.5785,VALID,53,VALID,0.655859,
Wed Feb 29 02:51:04 2012,VALID,916.035,VALID,0,VALID,80.7091,VALID,276.446,VALID,23.6956,VALID,351,VALID,0.609766,
Wed Feb 29 02:52:04 2012,VALID,916.025,VALID,0,VALID,79.3369,VALID,753.807,VALID,23.6779,VALID,352,VALID,0.793359,
Wed Feb 29 02:53:04 2012,VALID,916.049,VALID,0,VALID,77.3014,VALID,604.679,VALID,23.559,VALID,352,VALID,1.01406,
Wed Feb 29 02:54:04 2012,VALID,916.011,VALID,0,VALID,78.2467,VALID,769.279,VALID,23.4224,VALID,352,VALID,0.888672,
Wed Feb 29 02:55:04 2012,VALID,916.019,VALID,0,VALID,79.0853,VALID,808.28,VALID,23.5395,VALID,352,VALID,0.419141,
Wed Feb 29 02:56:04 2012,VALID,916.008,VALID,0,VALID,76.7144,VALID,751.336,VALID,23.7169,VALID,352,VALID,0.993359,
Wed Feb 29 02:57:04 2012,VALID,915.994,VALID,0,VALID,76.6611,VALID,684.293,VALID,23.6761,VALID,352,VALID,0.389844,
Wed Feb 29 02:58:04 2012,VALID,915.975,VALID,0,VALID,78.4221,VALID,327.91,VALID,23.7737,VALID,9,VALID,0.874609,
Wed Feb 29 02:59:04 2012,VALID,915.988,VALID,0,VALID,74.374,VALID,802.693,VALID,23.8713,VALID,319,VALID,1.14023,
Wed Feb 29 03:00:04 2012,VALID,915.956,VALID,0,VALID,76.7297,VALID,824.396,VALID,23.8517,VALID,319,VALID,0.294141,
Wed Feb 29 03:01:04 2012,VALID,916.004,VALID,0,VALID,77.6445,VALID,369.92,VALID,24.0683,VALID,319,VALID,0.813672,
Wed Feb 29 03:02:04 2012,VALID,915.991,VALID,0,VALID,78.4373,VALID,295.571,VALID,24.3026,VALID,319,VALID,0.799609,
Wed Feb 29 03:03:04 2012,VALID,916.006,VALID,0,VALID,77.2786,VALID,385.284,VALID,24.4569,VALID,319,VALID,0.905859,
Wed Feb 29 03:04:04 2012,VALID,916.044,VALID,0,VALID,76.3333,VALID,880.48,VALID,24.5935,VALID,319,VALID,1.23711,
Wed Feb 29 03:05:04 2012,VALID,916.055,VALID,0,VALID,77.7283,VALID,837.074,VALID,24.8297,VALID,319,VALID,1.13789,
Wed Feb 29 03:06:04 2012,VALID,916.075,VALID,0,VALID,74.4579,VALID,819.991,VALID,25.0817,VALID,319,VALID,0.603125,
Wed Feb 29 03:07:04 2012,VALID,916.068,VALID,0,VALID,73.1772,VALID,549.239,VALID,25.2965,VALID,10,VALID,0.503125,
Wed Feb 29 03:08:04 2012,VALID,916.078,VALID,0,VALID,71.1189,VALID,383.028,VALID,25.2379,VALID,270,VALID,0.437891,
Wed Feb 29 03:09:04 2012,VALID,916.089,VALID,0,VALID,71.9955,VALID,542.793,VALID,25.1012,VALID,270,VALID,0.594922,
Wed Feb 29 03:10:04 2012,VALID,916.115,VALID,0,VALID,67.1928,VALID,296.967,VALID,25.0817,VALID,305,VALID,1.64492,
Wed Feb 29 03:11:04 2012,VALID,916.121,VALID,0,VALID,69.1215,VALID,314.91,VALID,24.7497,VALID,240,VALID,0.998438,
Wed Feb 29 03:12:04 2012,VALID,916.111,VALID,0,VALID,72.1861,VALID,476.287,VALID,24.535,VALID,298,VALID,0.882422,
Wed Feb 29 03:13:04 2012,VALID,916.096,VALID,0,VALID,70.6081,VALID,793.56,VALID,24.3202,VALID,327,VALID,1.22969,
Wed Feb 29 03:14:04 2012,VALID,916.114,VALID,0,VALID,72.3462,VALID,830.198,VALID,24.2421,VALID,287,VALID,0.464844,
Wed Feb 29 03:15:04 2012,VALID,916.097,VALID,0,VALID,73.3754,VALID,839.008,VALID,24.3202,VALID,351,VALID,0.648828,
Wed Feb 29 03:16:04 2012,VALID,916.117,VALID,0,VALID,71.9803,VALID,817.52,VALID,24.4764,VALID,271,VALID,1.12695,
Wed Feb 29 03:17:04 2012,VALID,916.084,VALID,0,VALID,74.4274,VALID,810.751,VALID,24.3983,VALID,219,VALID,1.08711,
Wed Feb 29 03:18:04 2012,VALID,916.092,VALID,0,VALID,73.7108,VALID,680.317,VALID,24.4959,VALID,250,VALID,0.879297,
Wed Feb 29 03:19:04 2012,VALID,916.1,VALID,0,VALID,72.6893,VALID,699.872,VALID,24.6912,VALID,31,VALID,1.8625,
Wed Feb 29 03:20:04 2012,VALID,916.107,VALID,0,VALID,71.6677,VALID,840.942,VALID,24.8278,VALID,13,VALID,0.926953,
Wed Feb 29 03:21:04 2012,VALID,916.132,VALID,0,VALID,69.7619,VALID,864.794,VALID,24.9255,VALID,262,VALID,0.560156,
Wed Feb 29 03:22:04 2012,VALID,916.13,VALID,0,VALID,72.4911,VALID,844.165,VALID,25.0231,VALID,344,VALID,1.04922,
Wed Feb 29 03:23:04 2012,VALID,916.11,VALID,0,VALID,68.3973,VALID,880.265,VALID,25.0621,VALID,293,VALID,1.04453,
Wed Feb 29 03:24:04 2012,VALID,916.118,VALID,0,VALID,71.7745,VALID,565.785,VALID,25.1402,VALID,1,VALID,0.914844,
Wed Feb 29 03:25:04 2012,VALID,916.143,VALID,0,VALID,68.1533,VALID,864.257,VALID,25.3746,VALID,1,VALID,0.473047,
Wed Feb 29 03:26:04 2012,VALID,916.141,VALID,0,VALID,66.5677,VALID,352.729,VALID,25.5308,VALID,1,VALID,0.601563,